EN

Hourly Weather Nayarit

Today, 25 November, Wednesday

Time Temperature Precipitation Wind Pressure Humidity
00:00 +24°C° 0 mm 1 mps 742 mmHg 80%
01:00 +24°C° 0 mm 1 mps 742 mmHg 77%
02:00 +24°C° 0 mm 1 mps 742 mmHg 74%
03:00 +23°C° 0 mm 1 mps 741 mmHg 71%
04:00 +23°C° 0 mm 1 mps 741 mmHg 68%
05:00 +23°C° 0 mm 1 mps 741 mmHg 65%
06:00 +24°C° 0 mm 1 mps 742 mmHg 61%
07:00 +26°C° 0 mm 1 mps 742 mmHg 58%
08:00 +27°C° 0 mm 1 mps 743 mmHg 54%
09:00 +30°C° 0 mm 1 mps 743 mmHg 46%
10:00 +33°C° 0 mm 1 mps 743 mmHg 39%
11:00 +35°C° 0 mm 0 mps 742 mmHg 31%
12:00 +37°C° 0 mm 1 mps 742 mmHg 30%
13:00 +36°C° 0 mm 1 mps 741 mmHg 29%
14:00 +37°C° 0 mm 2 mps 740 mmHg 28%
15:00 +35°C° 0 mm 2 mps 740 mmHg 38%
16:00 +31°C° 0 mm 1 mps 740 mmHg 48%
17:00 +29°C° 0 mm 1 mps 740 mmHg 59%
18:00 +27°C° 0 mm 1 mps 741 mmHg 66%
19:00 +24°C° 0 mm 0 mps 741 mmHg 73%
20:00 +22°C° 0 mm 0 mps 742 mmHg 80%
21:00 +22°C° 0 mm 0 mps 742 mmHg 78%
22:00 +24°C° 0 mm 1 mps 742 mmHg 76%
23:00 +24°C° 0 mm 1 mps 742 mmHg 74%

Tomorrow, 26 November, Thursday

Time Temperature Precipitation Wind Pressure Humidity
00:00 +24°C° 0 mm 1 mps 741 mmHg 72%
01:00 +23°C° 0 mm 1 mps 741 mmHg 70%
02:00 +23°C° 0 mm 1 mps 741 mmHg 67%
03:00 +23°C° 0 mm 1 mps 741 mmHg 66%
04:00 +23°C° 0 mm 1 mps 740 mmHg 65%
05:00 +23°C° 0 mm 1 mps 740 mmHg 63%
06:00 +24°C° 0 mm 1 mps 741 mmHg 60%
07:00 +26°C° 0 mm 1 mps 741 mmHg 56%
08:00 +27°C° 0 mm 1 mps 741 mmHg 53%
09:00 +30°C° 0 mm 1 mps 741 mmHg 45%
10:00 +34°C° 0 mm 1 mps 741 mmHg 37%
11:00 +37°C° 0 mm 1 mps 741 mmHg 29%
12:00 +37°C° 0 mm 1 mps 740 mmHg 29%
13:00 +37°C° 0 mm 1 mps 740 mmHg 29%
14:00 +37°C° 0 mm 2 mps 739 mmHg 29%
15:00 +35°C° 0 mm 2 mps 739 mmHg 41%
16:00 +31°C° 0 mm 1 mps 739 mmHg 52%
17:00 +28°C° 0 mm 1 mps 739 mmHg 64%
18:00 +27°C° 0 mm 1 mps 740 mmHg 70%
19:00 +25°C° 0 mm 1 mps 740 mmHg 76%
20:00 +22°C° 0 mm 0 mps 741 mmHg 83%
21:00 +22°C° 0 mm 0 mps 741 mmHg 82%
22:00 +24°C° 0 mm 1 mps 741 mmHg 81%
23:00 +23°C° 0 mm 1 mps 741 mmHg 80%

Day after tomorrow, 27 November, Friday

Time Temperature Precipitation Wind Pressure Humidity
00:00 +23°C° 0 mm 1 mps 741 mmHg 79%
01:00 +23°C° 0 mm 1 mps 741 mmHg 78%
02:00 +23°C° 0 mm 1 mps 741 mmHg 77%
03:00 +23°C° 0 mm 1 mps 741 mmHg 74%
04:00 +23°C° 0 mm 1 mps 741 mmHg 72%
05:00 +23°C° 0 mm 1 mps 741 mmHg 69%
06:00 +24°C° 0 mm 1 mps 741 mmHg 65%
07:00 +25°C° 0 mm 1 mps 741 mmHg 60%
08:00 +27°C° 0 mm 1 mps 741 mmHg 56%
09:00 +30°C° 0 mm 1 mps 741 mmHg 48%
10:00 +33°C° 0 mm 1 mps 741 mmHg 40%
11:00 +36°C° 0 mm 1 mps 741 mmHg 33%
12:00 +36°C° 0 mm 1 mps 740 mmHg 33%
13:00 +37°C° 0 mm 2 mps 740 mmHg 34%
14:00 +36°C° 0 mm 2 mps 739 mmHg 34%
15:00 +34°C° 0 mm 2 mps 739 mmHg 44%
16:00 +30°C° 0 mm 2 mps 739 mmHg 54%
17:00 +28°C° 0 mm 1 mps 739 mmHg 64%
18:00 +26°C° 0 mm 1 mps 740 mmHg 71%
19:00 +25°C° 0 mm 1 mps 740 mmHg 77%
20:00 +21°C° 0 mm 0 mps 741 mmHg 83%
21:00 +23°C° 0 mm 1 mps 741 mmHg 82%
22:00 +23°C° 0 mm 1 mps 741 mmHg 82%
23:00 +23°C° 0 mm 1 mps 741 mmHg 81%

28 November, Saturday

Time Temperature Precipitation Wind Pressure Humidity
00:00 +23°C° 0 mm 1 mps 741 mmHg 80%
01:00 +23°C° 0 mm 1 mps 740 mmHg 80%
02:00 +23°C° 0 mm 1 mps 740 mmHg 79%
03:00 +22°C° 0 mm 1 mps 740 mmHg 78%
04:00 +22°C° 0 mm 1 mps 740 mmHg 77%
05:00 +22°C° 0 mm 1 mps 740 mmHg 75%
06:00 +24°C° 0 mm 1 mps 740 mmHg 70%
07:00 +25°C° 0 mm 1 mps 741 mmHg 65%
08:00 +27°C° 0 mm 1 mps 741 mmHg 60%
09:00 +30°C° 0 mm 1 mps 741 mmHg 53%
10:00 +32°C° 0 mm 1 mps 741 mmHg 45%
11:00 +35°C° 0 mm 1 mps 741 mmHg 38%
12:00 +35°C° 0 mm 1 mps 740 mmHg 38%
13:00 +36°C° 0 mm 2 mps 739 mmHg 39%
14:00 +36°C° 0 mm 2 mps 738 mmHg 39%
15:00 +34°C° 0 mm 2 mps 739 mmHg 50%
16:00 +30°C° 0 mm 1 mps 739 mmHg 60%
17:00 +28°C° 0 mm 1 mps 739 mmHg 70%
18:00 +27°C° 0 mm 1 mps 739 mmHg 78%
19:00 +23°C° 0 mm 0 mps 740 mmHg 86%
20:00 +21°C° 0 mm 0 mps 740 mmHg 94%
21:00 +21°C° 0 mm 0 mps 740 mmHg 94%
22:00 +21°C° 0 mm 0 mps 740 mmHg 93%
23:00 +23°C° 0 mm 1 mps 740 mmHg 93%

29 November, Sunday

Time Temperature Precipitation Wind Pressure Humidity
00:00 +23°C° 0 mm 1 mps 740 mmHg 92%
01:00 +22°C° 0 mm 1 mps 740 mmHg 91%
02:00 +22°C° 0 mm 1 mps 739 mmHg 90%
03:00 +22°C° 0 mm 1 mps 739 mmHg 89%
04:00 +22°C° 0 mm 1 mps 740 mmHg 88%
05:00 +22°C° 0 mm 1 mps 740 mmHg 87%
06:00 +23°C° 0 mm 1 mps 740 mmHg 81%
07:00 +23°C° 0 mm 0 mps 741 mmHg 75%
08:00 +24°C° 0 mm 0 mps 741 mmHg 70%
09:00 +28°C° 0 mm 1 mps 741 mmHg 62%
10:00 +31°C° 0 mm 1 mps 741 mmHg 54%
11:00 +33°C° 0 mm 1 mps 741 mmHg 47%
12:00 +34°C° 0 mm 2 mps 740 mmHg 46%
13:00 +34°C° 0 mm 2 mps 740 mmHg 45%
14:00 +34°C° 0 mm 2 mps 739 mmHg 45%
15:00 +31°C° 0 mm 2 mps 739 mmHg 53%
16:00 +29°C° 0 mm 2 mps 740 mmHg 61%
17:00 +27°C° 0 mm 1 mps 740 mmHg 70%
18:00 +25°C° 0 mm 1 mps 740 mmHg 77%
19:00 +21°C° 0 mm 0 mps 741 mmHg 84%
20:00 +20°C° 0 mm 0 mps 741 mmHg 91%
21:00 +19°C° 0 mm 0 mps 741 mmHg 91%
22:00 +21°C° 0 mm 1 mps 741 mmHg 91%
23:00 +21°C° 0 mm 1 mps 741 mmHg 91%

30 November, Monday

Time Temperature Precipitation Wind Pressure Humidity
00:00 +21°C° 0 mm 1 mps 741 mmHg 90%
01:00 +21°C° 0 mm 1 mps 741 mmHg 89%
02:00 +21°C° 0 mm 1 mps 740 mmHg 89%
03:00 +21°C° 0 mm 1 mps 741 mmHg 88%
04:00 +21°C° 0 mm 1 mps 741 mmHg 87%
05:00 +20°C° 0 mm 1 mps 741 mmHg 86%
06:00 +22°C° 0 mm 1 mps 741 mmHg 79%
07:00 +23°C° 0 mm 1 mps 742 mmHg 72%
08:00 +25°C° 0 mm 1 mps 742 mmHg 65%
09:00 +28°C° 0 mm 1 mps 742 mmHg 56%
10:00 +31°C° 0 mm 1 mps 742 mmHg 47%
11:00 +34°C° 0 mm 1 mps 742 mmHg 38%
12:00 +34°C° 0 mm 1 mps 741 mmHg 38%
13:00 +35°C° 0 mm 2 mps 740 mmHg 39%
14:00 +35°C° 0 mm 2 mps 739 mmHg 39%
15:00 +31°C° 0 mm 2 mps 739 mmHg 49%
16:00 +29°C° 0 mm 2 mps 740 mmHg 59%
17:00 +27°C° 0 mm 1 mps 740 mmHg 69%
18:00 +25°C° 0 mm 1 mps 740 mmHg 77%
19:00 +23°C° 0 mm 1 mps 741 mmHg 85%
20:00 +19°C° 0 mm 0 mps 742 mmHg 93%
21:00 +21°C° 0 mm 1 mps 742 mmHg 93%
22:00 +21°C° 0 mm 1 mps 742 mmHg 92%
23:00 +21°C° 0 mm 1 mps 743 mmHg 91%
Show more

We Need Your Consent

Meteoprog and our Service Providers may store and access personal data such as cookies, device identifiers or other similar technologies on your device and process such data to personalise content and ads, as well as provide social media features and to analyse the traffic.

  • Store and/or access information on your device

    Cookies, device identifiers or other information can be stored or accessed on your device for the purposes indicated above.

  • Personalised ads and content, ad and content measurement, audience insights, and products development

    Ads and content can be personalised based on a profile. More data can be added to better personalise ads and content. Ad and content performance can be measured. Insights about the audience who saw the ads and content can be derived. Such data can be used to develop or improve user’s experience, systems and software.

By clicking ‘I Agree’ you will allow the use of indicated cookies, device identifiers, web beacons or other similar technologies. Your settings can be changed in the browser on your device.

For certain purposes, legitimate interests may be relied on, rather than consent. You can read more about this in our Privacy and Cookie Policy.